sat.trackr.live / text

‹ back to catalog

STARLINK-33544

NORAD 62281 · 2024-237Q

PAYLOAD ACTIVE UNKNOWN

§ Identity

Operator
Country
US
Launch date
2024-12-08
Launch site
AFETR
Launch vehicle
Mass (kg)
RCS (m²)

Purposes: comms

External: N2YO · Heavens-Above · Gunter

§ Orbital elements

Epoch: 2026-05-25T00:35:24.978624Z

Period
94.27 min
Inclination
42.9982°
Eccentricity
0.0001267
Mean motion
15.27576768 rev/d
Perigee alt
482.2 km
Apogee alt
483.9 km
Semi-major
6,861.2 km
B*
6.0096e-4
RAAN
145.4987°
Arg perigee
258.3234°
Mean anomaly
101.7476°
Rev number
8,286

§ Raw data

STARLINK-335441 62281U 24237Q   26145.02459466  .00016310  00000+0  60096-3 0  99952 62281  42.9982 145.4987 0001267 258.3234 101.7476 15.27576768 82860

JSON: /api/v1/satellites/62281 · /tle

For live sub-satellite position, see the globe view (requires WebGL).

§ Visibility from observer

Set your observer location to see the next 7 days of passes ≥ 10°. The values pass through the URL so the page stays shareable.

No JS? Fill the form by hand. The geolocation button needs JavaScript.